Hourly Weather Luczynow

Today, 15 May, Saturday

Time Temperature Precipitation Wind Pressure Humidity
00:00 +10°C° 0 mm 4 mps 745 mmHg 96%
01:00 +9°C° 0 mm 3 mps 745 mmHg 96%
02:00 +9°C° 0 mm 3 mps 745 mmHg 96%
03:00 +8°C° 0 mm 3 mps 745 mmHg 96%
04:00 +8°C° 0 mm 3 mps 746 mmHg 96%
05:00 +8°C° 0 mm 4 mps 746 mmHg 90%
06:00 +11°C° 0 mm 4 mps 746 mmHg 84%
07:00 +12°C° 0 mm 5 mps 746 mmHg 79%
08:00 +13°C° 0 mm 5 mps 747 mmHg 72%
09:00 +14°C° 0 mm 5 mps 747 mmHg 66%
10:00 +15°C° 0 mm 5 mps 747 mmHg 59%
11:00 +16°C° 0 mm 5 mps 747 mmHg 57%
12:00 +18°C° 0 mm 4 mps 747 mmHg 55%
13:00 +19°C° 0 mm 4 mps 747 mmHg 52%
14:00 +19°C° 0 mm 3 mps 747 mmHg 52%
15:00 +19°C° 0 mm 2 mps 746 mmHg 51%
16:00 +19°C° 0 mm 2 mps 746 mmHg 51%
17:00 +18°C° 0 mm 2 mps 746 mmHg 57%
18:00 +17°C° 0 mm 2 mps 746 mmHg 62%
19:00 +15°C° 0 mm 1 mps 746 mmHg 67%
20:00 +14°C° 0 mm 2 mps 746 mmHg 71%
21:00 +13°C° 0 mm 2 mps 746 mmHg 75%
22:00 +11°C° 0 mm 3 mps 746 mmHg 79%
23:00 +11°C° 0 mm 3 mps 746 mmHg 82%

Tomorrow, 16 May, Sunday

Time Temperature Precipitation Wind Pressure Humidity
00:00 +11°C° 0 mm 3 mps 746 mmHg 84%
01:00 +10°C° 0 mm 3 mps 746 mmHg 87%
02:00 +10°C° 0.1 mm 3 mps 745 mmHg 87%
03:00 +10°C° 0.1 mm 3 mps 745 mmHg 88%
04:00 +10°C° 0.1 mm 3 mps 745 mmHg 89%
05:00 +12°C° 0 mm 3 mps 745 mmHg 86%
06:00 +13°C° 0 mm 3 mps 745 mmHg 83%
07:00 +14°C° 0 mm 3 mps 745 mmHg 80%
08:00 +16°C° 0.1 mm 2 mps 745 mmHg 76%
09:00 +17°C° 0.1 mm 2 mps 745 mmHg 72%
10:00 +18°C° 0.1 mm 2 mps 745 mmHg 69%
11:00 +18°C° 0.3 mm 2 mps 745 mmHg 68%
12:00 +19°C° 0.3 mm 2 mps 744 mmHg 67%
13:00 +19°C° 0.3 mm 2 mps 744 mmHg 66%
14:00 +18°C° 0.8 mm 2 mps 744 mmHg 72%
15:00 +17°C° 0.8 mm 3 mps 743 mmHg 78%
16:00 +16°C° 0.8 mm 3 mps 743 mmHg 85%
17:00 +14°C° 0.5 mm 3 mps 743 mmHg 88%
18:00 +14°C° 0.5 mm 2 mps 743 mmHg 91%
19:00 +13°C° 0.5 mm 2 mps 743 mmHg 95%
20:00 +13°C° 0 mm 2 mps 744 mmHg 95%
21:00 +12°C° 0 mm 2 mps 744 mmHg 95%
22:00 +12°C° 0 mm 2 mps 744 mmHg 96%
23:00 +12°C° 0 mm 2 mps 744 mmHg 96%

Day after tomorrow, 17 May, Monday

Time Temperature Precipitation Wind Pressure Humidity
00:00 +10°C° 0 mm 2 mps 744 mmHg 96%
01:00 +10°C° 0 mm 2 mps 744 mmHg 96%
02:00 +9°C° 0 mm 2 mps 744 mmHg 96%
03:00 +9°C° 0 mm 2 mps 745 mmHg 95%
04:00 +8°C° 0 mm 2 mps 745 mmHg 95%
05:00 +10°C° 0 mm 2 mps 745 mmHg 91%
06:00 +12°C° 0 mm 2 mps 745 mmHg 86%
07:00 +14°C° 0 mm 2 mps 745 mmHg 82%
08:00 +15°C° 0 mm 2 mps 745 mmHg 76%
09:00 +16°C° 0 mm 3 mps 745 mmHg 70%
10:00 +17°C° 0 mm 3 mps 744 mmHg 64%
11:00 +17°C° 0.1 mm 3 mps 744 mmHg 63%
12:00 +18°C° 0.1 mm 2 mps 744 mmHg 62%
13:00 +18°C° 0.1 mm 2 mps 744 mmHg 61%
14:00 +16°C° 0.7 mm 3 mps 744 mmHg 71%
15:00 +14°C° 0.7 mm 3 mps 744 mmHg 81%
16:00 +12°C° 0.7 mm 3 mps 744 mmHg 90%
17:00 +13°C° 0.6 mm 2 mps 744 mmHg 91%
18:00 +13°C° 0.6 mm 2 mps 744 mmHg 92%
19:00 +12°C° 0.6 mm 1 mps 744 mmHg 92%
20:00 +12°C° 0 mm 1 mps 744 mmHg 93%
21:00 +10°C° 0 mm 2 mps 744 mmHg 94%
22:00 +9°C° 0 mm 3 mps 744 mmHg 94%
23:00 +9°C° 0 mm 3 mps 744 mmHg 95%

18 May, Tuesday

Time Temperature Precipitation Wind Pressure Humidity
00:00 +9°C° 0 mm 3 mps 744 mmHg 95%
01:00 +7°C° 0 mm 4 mps 744 mmHg 96%
02:00 +7°C° 0 mm 4 mps 744 mmHg 96%
03:00 +7°C° 0 mm 4 mps 744 mmHg 95%
04:00 +7°C° 0 mm 4 mps 745 mmHg 95%
05:00 +8°C° 0 mm 5 mps 745 mmHg 91%
06:00 +9°C° 0 mm 5 mps 745 mmHg 87%
07:00 +10°C° 0 mm 6 mps 745 mmHg 83%
08:00 +11°C° 0.1 mm 6 mps 745 mmHg 78%
09:00 +13°C° 0.1 mm 6 mps 746 mmHg 73%
10:00 +14°C° 0.1 mm 6 mps 746 mmHg 67%
11:00 +14°C° 0.3 mm 6 mps 746 mmHg 69%
12:00 +14°C° 0.3 mm 6 mps 746 mmHg 71%
13:00 +14°C° 0.3 mm 5 mps 746 mmHg 73%
14:00 +14°C° 0.3 mm 5 mps 746 mmHg 74%
15:00 +14°C° 0.3 mm 5 mps 746 mmHg 75%
16:00 +14°C° 0.3 mm 5 mps 746 mmHg 76%
17:00 +13°C° 0.1 mm 4 mps 747 mmHg 80%
18:00 +12°C° 0.1 mm 3 mps 747 mmHg 84%
19:00 +12°C° 0.1 mm 2 mps 747 mmHg 88%
20:00 +10°C° 0.1 mm 3 mps 747 mmHg 90%
21:00 +9°C° 0.1 mm 3 mps 747 mmHg 92%
22:00 +9°C° 0.1 mm 3 mps 748 mmHg 94%
23:00 +8°C° 0 mm 3 mps 748 mmHg 94%

19 May, Wednesday

Time Temperature Precipitation Wind Pressure Humidity
00:00 +8°C° 0 mm 3 mps 748 mmHg 95%
01:00 +8°C° 0 mm 3 mps 748 mmHg 95%
02:00 +8°C° 0 mm 3 mps 748 mmHg 96%
03:00 +7°C° 0 mm 3 mps 748 mmHg 96%
04:00 +7°C° 0 mm 3 mps 748 mmHg 96%
05:00 +8°C° 0 mm 3 mps 748 mmHg 93%
06:00 +9°C° 0 mm 3 mps 748 mmHg 90%
07:00 +11°C° 0 mm 4 mps 749 mmHg 86%
08:00 +12°C° 0 mm 4 mps 749 mmHg 81%
09:00 +13°C° 0 mm 4 mps 749 mmHg 75%
10:00 +14°C° 0 mm 4 mps 749 mmHg 69%
11:00 +14°C° 0.1 mm 4 mps 749 mmHg 70%
12:00 +14°C° 0.1 mm 5 mps 749 mmHg 71%
13:00 +13°C° 0.1 mm 5 mps 749 mmHg 71%
14:00 +14°C° 0.1 mm 5 mps 749 mmHg 70%
15:00 +14°C° 0.1 mm 5 mps 749 mmHg 70%
16:00 +14°C° 0.1 mm 4 mps 748 mmHg 69%
17:00 +13°C° 0.1 mm 4 mps 749 mmHg 73%
18:00 +12°C° 0.1 mm 3 mps 749 mmHg 78%
19:00 +11°C° 0.1 mm 3 mps 749 mmHg 83%
20:00 +10°C° 0 mm 3 mps 749 mmHg 86%
21:00 +9°C° 0 mm 3 mps 749 mmHg 89%
22:00 +8°C° 0 mm 3 mps 750 mmHg 93%
23:00 +8°C° 0 mm 3 mps 750 mmHg 93%

20 May, Thursday

Time Temperature Precipitation Wind Pressure Humidity
00:00 +7°C° 0 mm 3 mps 750 mmHg 94%
01:00 +7°C° 0 mm 3 mps 750 mmHg 94%
02:00 +5°C° 0 mm 3 mps 750 mmHg 95%
03:00 +5°C° 0 mm 3 mps 750 mmHg 95%
04:00 +4°C° 0 mm 3 mps 750 mmHg 95%
05:00 +7°C° 0 mm 3 mps 751 mmHg 89%
06:00 +8°C° 0 mm 4 mps 751 mmHg 83%
07:00 +10°C° 0 mm 5 mps 751 mmHg 76%
08:00 +12°C° 0.1 mm 5 mps 751 mmHg 71%
09:00 +13°C° 0.1 mm 5 mps 751 mmHg 65%
10:00 +15°C° 0.1 mm 5 mps 751 mmHg 60%
11:00 +14°C° 0.3 mm 6 mps 751 mmHg 64%
12:00 +14°C° 0.3 mm 7 mps 751 mmHg 68%
13:00 +12°C° 0.3 mm 7 mps 751 mmHg 72%
14:00 +12°C° 0.1 mm 7 mps 751 mmHg 69%
15:00 +14°C° 0.1 mm 7 mps 752 mmHg 65%
16:00 +14°C° 0.1 mm 6 mps 752 mmHg 62%
17:00 +13°C° 0 mm 6 mps 752 mmHg 67%
18:00 +10°C° 0 mm 5 mps 752 mmHg 72%
19:00 +10°C° 0 mm 4 mps 752 mmHg 78%
20:00 +8°C° 0 mm 4 mps 752 mmHg 81%
21:00 +9°C° 0 mm 3 mps 752 mmHg 85%
22:00 +8°C° 0 mm 3 mps 753 mmHg 88%
23:00 +7°C° 0 mm 3 mps 753 mmHg 90%
Show more

We Need Your Consent

Meteoprog and our Service Providers may store and access personal data such as cookies, device identifiers or other similar technologies on your device and process such data to personalise content and ads, as well as provide social media features and to analyse the traffic.

  • Store and/or access information on your device

    Cookies, device identifiers or other information can be stored or accessed on your device for the purposes indicated above.

  • Personalised ads and content, ad and content measurement, audience insights, and products development

    Ads and content can be personalised based on a profile. More data can be added to better personalise ads and content. Ad and content performance can be measured. Insights about the audience who saw the ads and content can be derived. Such data can be used to develop or improve user’s experience, systems and software.

By clicking ‘I Agree’ you will allow the use of indicated cookies, device identifiers, web beacons or other similar technologies. Your settings can be changed in the browser on your device.

For certain purposes, legitimate interests may be relied on, rather than consent. You can read more about this in our Privacy and Cookie Policy.